Point Lay, AK

9:43 AM AKDT on July 23, 2016 (GMT -0800)
Point Lay

Weather History for PPIZ - April, 2014

Change the Weather History Date:

Saturday, April 26, 2014

  Actual Average Record
Temperature  
Mean Temperature 20 °F -  
Max Temperature 32 °F 16 °F 37 °F (2003)
Min Temperature 10 °F 6 °F -14 °F (1999)
Degree Days  
Heating Degree Days 44    
Moisture  
Dew Point 17 °F    
Average Humidity 86    
Maximum Humidity 92    
Minimum Humidity 79    
Precipitation  
Precipitation 0.00 in - - ()
Sea Level Pressure  
Sea Level Pressure 29.61 in    
Wind  
Wind Speed 5 mph (ENE)    
Max Wind Speed 10 mph    
Max Gust Speed -    
Visibility 10 miles    
Events      
Averages and records for this station are not official NWS values.
T = Trace of Precipitation, MM = Missing Value Source: NWS Daily Summary

Daily Weather History Graph

Daily Weather History Graph

Search for Another Location

Airport or City:

Trip Planner

Search our weather history database for the weather conditions in past years. The results will help you decide how hot, cold, wet, or windy it might be!

Date:

Astronomy

Apr. 26, 2014 Rise Set
Actual Time 5:52 AM AKDT 11:50 PM AKDT
Civil Twilight 3:51 AM AKDT 2:03 AM AKDT
Nautical Twilight Sun does not set Sun does not set
Astronomical Twilight Sun does not set Sun does not set
Moon 6:06 AM AKDT (4/26) 8:07 PM AKDT (4/26)
Length of Visible Light 22h 12m
Length of Day
17h 58m
Waning Crescent, 7% of the Moon is Illuminated
Apr 26
Waning Crescent
Apr 28
New
May 6
First Quarter
May 14
Full
May 21
Last Quarter

Hourly Weather History & Observations

Time (AKDT) Temp. Windchill Dew Point Humidity Pressure Visibility Wind Dir Wind Speed Gust Speed Precip Events Conditions
12:56 AM 10.4 °F -1.5 °F 6.8 °F 85% 29.53 in 10.0 mi NNE 8.1 mph - N/A   Scattered Clouds
1:56 AM 12.0 °F -1.3 °F 8.1 °F 84% 29.54 in 10.0 mi NE 10.4 mph - N/A   Scattered Clouds
2:56 AM 14.0 °F 5.1 °F 10.0 °F 84% 29.55 in 10.0 mi NE 5.8 mph - N/A   Overcast
3:56 AM 15.1 °F 5.2 °F 11.1 °F 84% 29.54 in 10.0 mi NE 6.9 mph - N/A   Overcast
4:56 AM 16.2 °F - 12.0 °F 84% 29.55 in 10.0 mi Calm Calm - N/A   Mostly Cloudy
5:56 AM 16.2 °F 6.5 °F 13.1 °F 88% 29.55 in 10.0 mi ENE 6.9 mph - N/A   Overcast
6:56 AM 16.2 °F - 13.1 °F 88% 29.55 in 10.0 mi Calm Calm - N/A   Scattered Clouds
7:56 AM 14.0 °F 6.5 °F 10.0 °F 84% 29.56 in 10.0 mi East 4.6 mph - N/A   Scattered Clouds
8:56 AM 16.2 °F - 12.0 °F 84% 29.57 in 10.0 mi Calm Calm - N/A   Scattered Clouds
9:56 AM 17.6 °F 10.7 °F 12.2 °F 79% 29.57 in 10.0 mi SSE 4.6 mph - N/A   Mostly Cloudy
10:56 AM 17.1 °F 8.7 °F 13.1 °F 84% 29.59 in 10.0 mi South 5.8 mph - N/A   Scattered Clouds
11:56 AM 22.1 °F 14.7 °F 19.0 °F 88% 29.61 in 10.0 mi SSW 5.8 mph - N/A   Partly Cloudy
12:56 PM 24.1 °F 18.2 °F 21.0 °F 88% 29.62 in 10.0 mi SSW 4.6 mph - N/A   Clear
1:56 PM 26.1 °F - 23.0 °F 88% 29.62 in 10.0 mi Calm Calm - N/A   Clear
2:56 PM 29.1 °F - 25.2 °F 85% 29.64 in 10.0 mi Calm Calm - N/A   Clear
3:56 PM 30.0 °F - 25.2 °F 82% 29.64 in 10.0 mi Calm Calm - N/A   Clear
4:56 PM 31.1 °F - 25.2 °F 79% 29.65 in 10.0 mi Calm Calm - N/A   Clear
5:56 PM 27.1 °F - 23.0 °F 84% 29.65 in 10.0 mi Calm Calm - N/A   Clear
6:56 PM 27.1 °F - 23.0 °F 84% 29.66 in 10.0 mi Calm Calm - N/A   Clear
7:56 PM 26.1 °F 18.4 °F 23.0 °F 88% 29.66 in 10.0 mi NNE 6.9 mph - N/A   Clear
8:56 PM 24.1 °F 17.0 °F 22.1 °F 92% 29.67 in 10.0 mi NNE 5.8 mph - N/A   Clear
9:56 PM 22.1 °F 12.0 °F 20.1 °F 92% 29.68 in 10.0 mi NNE 9.2 mph - N/A   Clear
10:56 PM 20.1 °F 11.3 °F 18.1 °F 92% 29.69 in 10.0 mi ENE 6.9 mph - N/A   Clear
11:56 PM 17.1 °F - 14.0 °F 88% 29.69 in 10.0 mi Calm Calm - N/A   Clear